1494475200.28,62532,11.69,72802.8,-6.41,-41.49,-42.25,0,*5A
1494475201.53,62533,11.69,72802.0,-6.41,-41.55,-42.25,0,*56
1494475202.76,62534,11.69,72800.0,-6.41,-41.49,-42.25,0,*5C
1494475204.02,62535,11.69,72798.0,-6.43,-41.55,-42.31,0,*57
1494475205.27,62536,11.69,72790.0,-6.41,-41.55,-42.13,0,*56
1494475206.5,62537,11.69,72796.5,-6.43,-41.55,-42.25,0,*50
1494475207.73,62538,11.69,72796.3,-6.41,-41.49,-42.25,0,*50
1494475208.99,62539,11.69,72800.8,-6.41,-41.55,-42.25,0,*5C
1494475210.19,62540,11.69,72796.0,-6.43,-41.41,-42.13,0,*50
1494475211.39,62541,11.69,72792.0,-6.43,-41.41,-42.13,0,*51
1494475212.62,62542,11.69,72796.3,-6.43,-41.55,-42.13,0,*57
1494475213.85,62543,11.69,72798.5,-6.43,-41.73,-42.31,0,*52
1494475215.11,62544,11.69,72800.0,-6.43,-41.81,-42.57,0,*58
1494475216.33,62545,11.69,72798.8,-6.45,-41.73,-42.37,0,*54
1494475217.56,62546,11.69,72800.8,-6.45,-41.73,-42.51,0,*57
1494475218.8,62547,11.69,72802.5,-6.43,-41.73,-42.31,0,*56
1494475220.05,62548,11.69,72802.5,-6.45,-41.41,-42.19,0,*54
1494475221.31,62549,11.69,72800.5,-6.43,-41.55,-42.19,0,*56
1494475222.57,62550,11.69,72804.0,-6.45,-41.73,-42.31,0,*56
1494475223.83,62551,11.69,72808.5,-6.45,-41.61,-42.31,0,*54
1494475225.09,62552,11.69,72808.3,-6.45,-41.73,-42.19,0,*5E
1494475226.29,62553,11.69,72808.3,-6.43,-41.73,-42.37,0,*55
1494475227.55,62554,11.69,72810.0,-6.45,-41.73,-42.31,0,*52
1494475228.81,62555,11.69,72810.0,-6.45,-41.73,-42.31,0,*53
1494475230.09,62556,11.69,72804.3,-6.45,-41.55,-42.31,0,*54
1494475231.33,62557,11.69,72806.3,-6.43,-41.61,-42.31,0,*54
1494475232.59,62558,11.69,72808.0,-6.45,-41.61,-42.31,0,*5D
1494475233.85,62559,11.69,72814.0,-6.45,-41.73,-42.31,0,*5F
1494475235.08,62560,11.69,72816.3,-6.43,-41.73,-42.31,0,*53
1494475236.34,62561,11.69,72808.5,-6.45,-41.35,-41.99,0,*57
1494475237.57,62562,11.69,72812.3,-6.47,-41.55,-42.13,0,*51
1494475238.78,62563,11.69,72810.3,-6.47,-41.41,-42.13,0,*55
1494475240.01,62564,11.69,72808.8,-6.45,-41.41,-42.13,0,*50
1494475241.26,62565,11.69,72808.5,-6.45,-41.55,-42.13,0,*54
1494475242.49,62566,11.69,72806.5,-6.43,-41.61,-42.19,0,*5C
1494475243.74,62567,11.69,72808.5,-6.45,-41.55,-42.13,0,*56
1494475245.0,62568,11.69,72810.5,-6.45,-41.35,-42.13,0,*5F
1494475246.21,62569,11.69,72810.8,-6.47,-41.41,-41.99,0,*5E
1494475247.43,62570,11.69,72810.5,-6.47,-41.29,-41.93,0,*52
1494475248.64,62571,11.69,72808.3,-6.47,-41.41,-42.13,0,*56
1494475249.84,62572,11.75,72806.8,-6.47,-41.41,-42.13,0,*55
1494475251.09,62573,11.69,72804.3,-6.45,-41.55,-42.13,0,*53
1494475252.35,62574,11.69,72798.3,-6.45,-41.61,-42.19,0,*59
1494475253.58,62575,11.69,72794.5,-6.45,-41.41,-41.99,0,*51
1494475254.83,62576,11.69,72800.3,-6.45,-41.55,-42.13,0,*56
1494475256.07,62577,11.69,72802.5,-6.45,-41.41,-41.99,0,*53
1494475257.3,62578,11.69,72804.8,-6.47,-41.55,-42.13,0,*5A
1494475258.56,62579,11.69,72800.3,-6.45,-41.61,-42.31,0,*5E
1494475259.81,62580,11.69,72798.8,-6.45,-41.55,-41.99,0,*5E
1494475261.07,62581,11.75,72804.8,-6.45,-41.55,-42.13,0,*5E
1494475262.3,62582,11.69,72802.3,-6.45,-41.17,-41.73,0,*5E
1494475263.58,62583,11.69,72806.5,-6.45,-41.35,-41.81,0,*52
1494475264.78,62584,11.69,72808.3,-6.47,-41.17,-41.61,0,*59
1494475266.04,62585,11.75,72806.8,-6.47,-40.97,-41.55,0,*56
1494475267.29,62586,11.75,72808.8,-6.45,-40.97,-41.61,0,*50
1494475268.54,62587,11.75,72810.0,-6.45,-41.29,-41.81,0,*5B
1494475269.79,62588,11.69,72802.8,-6.45,-40.97,-41.61,0,*5E
1494475271.02,62589,11.69,72800.3,-6.45,-41.11,-41.61,0,*50
1494475272.25,62590,11.69,72796.3,-6.45,-41.11,-41.73,0,*5B
1494475273.48,62591,11.69,72798.0,-6.45,-41.11,-41.73,0,*5A
1494475274.72,62592,11.75,72800.5,-6.45,-41.29,-41.81,0,*5F
1494475275.97,62593,11.75,72802.3,-6.45,-41.29,-41.93,0,*5D
1494475277.17,62594,11.75,72804.8,-6.43,-41.17,-41.73,0,*5F
1494475278.4,62595,11.69,72802.3,-6.45,-41.29,-41.73,0,*55
1494475279.62,62596,11.75,72806.8,-6.45,-41.29,-41.99,0,*52
1494475280.85,62597,11.75,72808.0,-6.45,-41.29,-41.99,0,*53
1494475282.1,62598,11.75,72808.5,-6.45,-41.29,-41.81,0,*55
1494475283.37,62599,11.75,72806.8,-6.45,-41.35,-41.93,0,*5A
1494475284.62,62600,11.75,72804.0,-6.45,-41.29,-41.81,0,*57
1494475285.87,62601,11.75,72806.3,-6.45,-41.29,-41.81,0,*56
1494475287.12,62602,11.75,72804.8,-6.45,-41.17,-41.93,0,*5B
1494475288.37,62603,11.75,72808.0,-6.45,-41.17,-41.93,0,*5A
1494475289.62,62604,11.75,72810.3,-6.45,-41.17,-41.81,0,*5E
1494475290.87,62605,11.75,72810.5,-6.45,-41.29,-41.81,0,*52
1494475292.1,62606,11.75,72804.8,-6.45,-41.41,-41.99,0,*56
1494475293.34,62607,11.75,72804.0,-6.45,-41.29,-41.93,0,*53
1494475294.6,62608,11.75,72804.3,-6.45,-41.35,-41.99,0,*5B
1494475295.84,62609,11.75,72804.8,-6.45,-41.29,-41.93,0,*5D
1494475297.09,62610,11.75,72806.3,-6.45,-41.29,-41.81,0,*56
1494475298.31,62611,11.75,72800.5,-6.43,-41.17,-41.93,0,*5F
1494475299.57,62612,11.75,72796.0,-6.45,-41.35,-41.99,0,*50
1494475300.82,62613,11.75,72798.0,-6.45,-41.29,-41.93,0,*56
1494475302.05,62614,11.75,72794.5,-6.45,-41.41,-42.13,0,*54
1494475303.27,62615,11.75,72790.3,-6.45,-41.41,-42.13,0,*55
1494475304.53,62616,11.75,72794.5,-6.45,-41.61,-42.19,0,*5E
1494475305.82,62617,11.75,72792.8,-6.45,-41.55,-42.19,0,*58
1494475307.08,62618,11.75,72794.3,-6.45,-41.61,-42.31,0,*5A
1494475308.31,62619,11.75,72806.3,-6.43,-41.61,-42.31,0,*5D
1494475309.57,62620,11.75,72802.8,-6.45,-41.35,-41.99,0,*51
1494475310.85,62621,11.75,72802.8,-6.45,-41.35,-41.93,0,*5A
1494475312.08,62622,11.75,72802.8,-6.45,-41.61,-42.13,0,*53
1494475313.34,62623,11.75,72810.5,-6.43,-41.55,-42.31,0,*53
1494475314.55,62624,11.75,72806.8,-6.43,-41.41,-41.99,0,*50
1494475315.8,62625,11.75,72806.5,-6.45,-41.35,-41.99,0,*54
1494475317.05,62626,11.75,72802.8,-6.45,-41.29,-41.81,0,*53
1494475318.28,62627,11.75,72802.5,-6.45,-41.11,-41.73,0,*54
1494475319.53,62628,11.75,72812.3,-6.45,-41.17,-41.81,0,*50
1494475320.78,62629,11.75,72806.5,-6.45,-41.11,-41.81,0,*57
1494475322.03,62630,11.75,72804.5,-6.45,-41.29,-41.93,0,*57
1494475323.28,62631,11.75,72796.3,-6.45,-41.17,-41.81,0,*58
1494475324.53,62632,11.75,72796.8,-6.45,-41.11,-41.81,0,*5D
1494475325.76,62633,11.75,72796.8,-6.45,-41.17,-41.73,0,*57
1494475327.01,62634,11.75,72798.8,-6.45,-40.97,-41.73,0,*59
1494475328.24,62635,11.75,72798.8,-6.45,-41.11,-41.61,0,*54
1494475329.46,62636,11.75,72798.8,-6.45,-41.11,-41.61,0,*57
1494475330.72,62637,11.75,72804.5,-6.45,-40.97,-41.61,0,*59
1494475331.95,62638,11.75,72808.3,-6.43,-40.91,-41.55,0,*51
1494475333.19,62639,11.75,72800.3,-6.45,-40.91,-41.41,0,*53
1494475334.44,62640,11.75,72800.5,-6.45,-40.73,-41.35,0,*52
1494475335.67,62641,11.75,72808.0,-6.43,-40.79,-41.41,0,*5C
1494475336.9,62642,11.75,72800.8,-6.43,-40.79,-41.41,0,*5F
1494475338.11,62643,11.75,72808.3,-6.43,-40.91,-41.41,0,*58
1494475339.31,62644,11.75,72808.0,-6.43,-41.17,-41.61,0,*52
1494475340.6,62645,11.75,72804.0,-6.41,-41.23,-41.67,0,*50
1494475341.8,62646,11.75,72800.8,-6.43,-41.17,-41.73,0,*53
1494475343.02,62647,11.75,72810.3,-6.43,-41.11,-41.81,0,*59
1494475344.22,62648,11.75,72808.5,-6.43,-41.29,-41.99,0,*54
1494475345.48,62649,11.75,72810.3,-6.43,-41.55,-42.19,0,*55
1494475346.74,62650,11.75,72810.8,-6.43,-41.35,-41.81,0,*59
1494475347.99,62651,11.75,72810.5,-6.43,-40.97,-41.55,0,*58
1494475349.19,62652,11.75,72812.8,-6.43,-41.29,-41.73,0,*5B
1494475350.39,62653,11.75,72816.0,-6.43,-41.29,-41.99,0,*5E
1494475351.6,62654,11.75,72814.3,-6.43,-41.17,-41.73,0,*50
1494475352.8,62655,11.75,72808.8,-6.43,-41.11,-41.73,0,*57
1494475354.02,62656,11.75,72802.3,-6.43,-41.29,-41.81,0,*52
1494475355.24,62657,11.75,72808.8,-6.43,-41.29,-41.81,0,*53
1494475356.49,62658,11.75,72810.5,-6.45,-41.29,-41.93,0,*59
1494475357.74,62659,11.75,72814.0,-6.43,-41.35,-41.93,0,*53
1494475358.96,62660,11.75,72808.0,-6.43,-41.29,-41.93,0,*54
1494475360.17,62661,11.75,72814.8,-6.43,-41.41,-41.99,0,*51
1494475361.39,62662,11.75,72812.3,-6.43,-41.41,-41.93,0,*58
1494475362.64,62663,11.75,72818.0,-6.45,-41.17,-41.93,0,*5C
1494475363.84,62664,11.75,72816.5,-6.43,-41.11,-41.73,0,*55
1494475365.07,62665,11.75,72816.3,-6.43,-40.97,-41.61,0,*58
1494475366.3,62666,11.75,72818.8,-6.43,-41.35,-41.99,0,*55
1494475367.55,62667,11.75,72818.5,-6.43,-41.35,-41.93,0,*5E
1494475368.81,62668,11.75,72818.0,-6.45,-40.91,-41.55,0,*52
1494475370.08,62669,11.75,72810.5,-6.45,-40.91,-41.55,0,*53
1494475371.36,62670,11.75,72812.3,-6.41,-40.85,-41.55,0,*5A
1494475372.64,62671,11.75,72816.0,-6.41,-40.85,-41.35,0,*5D
1494475373.9,62672,11.75,72820.5,-6.41,-40.73,-41.35,0,*57
1494475375.18,62673,11.75,72810.3,-6.41,-40.85,-41.55,0,*59
1494475376.38,62674,11.75,72818.0,-6.39,-40.65,-41.29,0,*54
1494475377.66,62675,11.75,72812.0,-6.41,-40.85,-41.35,0,*59
1494475378.89,62676,11.75,72820.3,-6.39,-40.85,-41.49,0,*5E
1494475380.17,62677,11.75,72816.0,-6.41,-40.85,-41.55,0,*5D
1494475381.44,62678,11.75,72816.3,-6.41,-40.91,-41.55,0,*57
1494475382.67,62679,11.75,72816.5,-6.39,-41.03,-41.55,0,*53
1494475383.91,62680,11.75,72808.8,-6.41,-40.91,-41.49,0,*5D
1494475385.16,62681,11.75,72814.0,-6.41,-40.85,-41.49,0,*59
1494475386.4,62682,11.75,72818.3,-6.39,-40.91,-41.55,0,*5D
1494475387.63,62683,11.75,72816.3,-6.39,-41.03,-41.55,0,*56
1494475388.9,62684,11.75,72814.8,-6.41,-41.03,-41.55,0,*5E
1494475390.15,62685,11.75,72818.3,-6.39,-40.85,-41.55,0,*5F
1494475391.39,62686,11.75,72820.3,-6.39,-41.23,-41.73,0,*55
1494475392.63,62687,11.81,72818.5,-6.39,-40.91,-41.55,0,*58
1494475393.86,62688,11.75,72818.8,-6.39,-40.85,-41.49,0,*5F
1494475395.09,62689,11.75,72816.5,-6.39,-41.11,-41.67,0,*5E
1494475396.3,62690,11.75,72822.5,-6.39,-41.29,-41.87,0,*53
1494475397.56,62691,11.75,72808.3,-6.39,-40.85,-41.35,0,*5C
1494475398.84,62692,11.75,72814.3,-6.41,-40.85,-41.35,0,*50
1494475400.1,62693,11.81,72814.0,-6.39,-40.85,-41.55,0,*58
1494475401.33,62694,11.81,72818.0,-6.37,-41.03,-41.61,0,*59
1494475402.59,62695,11.75,72814.8,-6.39,-40.85,-41.55,0,*5E
1494475403.79,62696,11.75,72818.3,-6.39,-40.91,-41.49,0,*55
1494475405.04,62697,11.75,72820.8,-6.37,-40.85,-41.49,0,*5F
1494475406.29,62698,11.81,72822.5,-6.37,-40.85,-41.49,0,*50
1494475407.57,62699,11.75,72814.5,-6.37,-40.79,-41.23,0,*5E
1494475408.77,62700,11.75,72814.8,-6.35,-40.73,-41.41,0,*53
1494475410.02,62701,11.75,72818.8,-6.37,-40.79,-41.41,0,*5A
1494475411.27,62702,11.81,72822.5,-6.37,-40.79,-41.49,0,*51
1494475412.49,62703,11.75,72814.8,-6.37,-40.73,-41.41,0,*52
1494475413.71,62704,11.81,72814.8,-6.37,-41.17,-41.49,0,*5E
1494475414.96,62705,11.81,72814.5,-6.37,-40.97,-41.49,0,*56
1494475416.22,62706,11.81,72812.8,-6.37,-40.85,-41.41,0,*5E
1494475417.45,62707,11.81,72814.8,-6.35,-40.73,-41.35,0,*57
1494475418.7,62708,11.81,72814.5,-6.37,-40.97,-41.61,0,*51
1494475419.94,62709,11.81,72816.0,-6.35,-40.91,-41.55,0,*53
1494475421.16,62710,11.81,72816.5,-6.35,-40.97,-41.61,0,*5A
1494475422.43,62711,11.81,72816.5,-6.37,-41.03,-41.67,0,*53
1494475423.65,62712,11.81,72818.8,-6.37,-41.17,-41.87,0,*5B
1494475424.92,62713,11.81,72818.0,-6.37,-41.03,-41.67,0,*51
1494475426.17,62714,11.81,72816.5,-6.37,-41.17,-41.67,0,*53
1494475427.44,62715,11.81,72816.0,-6.35,-41.23,-41.67,0,*57
1494475428.7,62716,11.81,72816.5,-6.37,-41.03,-41.67,0,*54
1494475429.96,62717,11.81,72812.0,-6.37,-41.23,-41.87,0,*59
1494475431.22,62718,11.81,72818.3,-6.37,-41.23,-41.99,0,*59
1494475432.47,62719,11.81,72816.5,-6.37,-41.03,-41.81,0,*53
1494475433.72,62720,11.75,72812.8,-6.37,-40.85,-41.61,0,*58
1494475434.97,62721,11.81,72818.3,-6.37,-40.79,-41.29,0,*56
1494475436.22,62722,11.81,72814.3,-6.37,-40.97,-41.49,0,*53
1494475437.47,62723,11.81,72820.8,-6.37,-41.17,-41.67,0,*57
1494475438.7,62724,11.81,72812.5,-6.37,-41.03,-41.73,0,*50
1494475439.95,62725,11.81,72812.8,-6.37,-41.17,-41.81,0,*59
1494475441.21,62726,11.81,72814.3,-6.37,-41.03,-41.67,0,*57
1494475442.46,62727,11.81,72816.5,-6.37,-41.17,-41.81,0,*5B
1494475443.72,62728,11.81,72816.8,-6.37,-41.03,-41.81,0,*51
1494475444.94,62729,11.81,72818.3,-6.37,-41.03,-41.61,0,*5E
1494475446.19,62730,11.81,72816.0,-6.37,-40.97,-41.61,0,*5A
1494475447.44,62731,11.81,72816.5,-6.37,-40.97,-41.49,0,*51
1494475448.69,62732,11.81,72816.3,-6.37,-40.85,-41.49,0,*51
1494475449.95,62733,11.81,72816.5,-6.37,-41.03,-41.67,0,*53
1494475451.18,62734,11.81,72818.3,-6.35,-40.97,-41.61,0,*5C
1494475452.43,62735,11.81,72818.0,-6.37,-40.85,-41.49,0,*56
1494475453.68,62736,11.81,72812.8,-6.37,-40.97,-41.61,0,*5C
1494475454.96,62737,11.81,72814.0,-6.37,-41.23,-41.81,0,*5D
1494475456.17,62738,11.81,72814.0,-6.35,-41.11,-41.87,0,*57
1494475457.43,62739,11.81,72814.5,-6.37,-41.03,-41.67,0,*59
1494475458.63,62740,11.81,72818.0,-6.39,-41.11,-41.87,0,*54
1494475459.9,62741,11.81,72818.3,-6.37,-41.03,-41.67,0,*56
1494475461.13,62742,11.81,72816.8,-6.35,-41.23,-41.87,0,*5B
1494475462.39,62743,11.81,72816.8,-6.37,-41.17,-41.67,0,*51
1494475463.62,62744,11.81,72822.3,-6.37,-41.03,-41.61,0,*55
1494475464.88,62745,11.81,72822.5,-6.37,-41.23,-41.87,0,*5E
1494475466.12,62746,11.81,72822.8,-6.37,-41.29,-42.05,0,*5E
1494475467.37,62747,11.81,72826.0,-6.37,-41.49,-42.05,0,*59
1494475468.62,62748,11.81,72826.8,-6.37,-41.41,-42.05,0,*5E
1494475469.87,62749,11.81,72830.3,-6.37,-41.49,-42.05,0,*57
1494475471.12,62750,11.81,72824.3,-6.37,-41.41,-42.05,0,*57
1494475472.34,62751,11.81,72820.8,-6.37,-41.29,-41.99,0,*5E
1494475473.57,62752,11.81,72818.8,-6.39,-41.29,-42.05,0,*55
1494475474.82,62753,11.81,72818.5,-6.39,-41.35,-41.93,0,*55
1494475476.04,62754,11.81,72818.5,-6.39,-41.29,-41.93,0,*5F
1494475477.25,62755,11.81,72814.5,-6.39,-41.29,-41.87,0,*5B
1494475478.48,62756,11.81,72816.0,-6.39,-41.23,-41.87,0,*52
1494475479.72,62757,11.81,72808.8,-6.39,-41.23,-41.87,0,*53
1494475480.96,62758,11.81,72814.0,-6.39,-40.91,-41.67,0,*5A
1494475482.17,62759,11.81,72808.8,-6.39,-41.11,-41.73,0,*57
1494475483.41,62760,11.81,72804.0,-6.39,-40.91,-41.67,0,*51
1494475484.65,62761,11.81,72802.5,-6.39,-41.03,-41.55,0,*5B
1494475485.89,62762,11.81,72800.8,-6.39,-41.03,-41.67,0,*59
1494475487.13,62763,11.81,72810.5,-6.39,-41.23,-41.73,0,*5F
1494475488.33,62764,11.81,72808.3,-6.39,-41.11,-41.73,0,*59
1494475489.62,62765,11.81,72804.0,-6.37,-41.23,-41.67,0,*52
1494475490.87,62766,11.81,72804.0,-6.37,-40.85,-41.61,0,*5A
1494475492.1,62767,11.81,72808.5,-6.35,-40.97,-41.61,0,*5A
1494475493.33,62768,11.81,72810.0,-6.35,-40.97,-41.73,0,*56
1494475494.56,62769,11.81,72808.5,-6.37,-41.03,-41.87,0,*52
1494475495.82,62770,11.81,72806.5,-6.37,-41.17,-41.67,0,*51
1494475497.07,62771,11.81,72804.5,-6.37,-40.85,-41.61,0,*5C
1494475498.32,62772,11.81,72802.5,-6.37,-40.85,-41.61,0,*5F
1494475499.58,62773,11.81,72802.5,-6.37,-41.03,-41.67,0,*57
1494475500.79,62774,11.81,72812.3,-6.35,-40.91,-41.61,0,*5E
1494475502.04,62775,11.81,72808.0,-6.37,-40.97,-41.61,0,*5B
1494475503.29,62776,11.81,72810.3,-6.35,-40.97,-41.55,0,*5D
1494475504.52,62777,11.81,72808.3,-6.37,-41.17,-41.87,0,*58
1494475505.72,62778,11.81,72808.5,-6.35,-41.11,-41.61,0,*5B
1494475506.99,62779,11.81,72810.0,-6.37,-41.03,-41.67,0,*5D
1494475508.19,62780,11.81,72804.3,-6.35,-41.17,-41.73,0,*59
1494475509.4,62781,11.81,72810.8,-6.35,-41.17,-41.73,0,*58
1494475510.62,62782,11.81,72808.3,-6.35,-41.17,-41.93,0,*55
1494475511.85,62783,11.81,72808.3,-6.37,-41.29,-41.99,0,*51
1494475513.1,62784,11.81,72808.5,-6.37,-41.41,-42.05,0,*5E
1494475514.34,62785,11.81,72808.3,-6.37,-41.29,-42.05,0,*51
1494475515.57,62786,11.81,72810.8,-6.37,-41.41,-41.99,0,*5A
1494475516.8,62787,11.81,72808.8,-6.37,-41.41,-41.99,0,*5B
1494475518.05,62788,11.81,72810.5,-6.37,-41.49,-42.05,0,*5A
1494475519.28,62789,11.81,72808.8,-6.35,-41.35,-41.99,0,*54
1494475520.5,62790,11.81,72814.3,-6.37,-41.29,-41.99,0,*53
1494475521.75,62791,11.81,72808.3,-6.37,-41.41,-42.05,0,*5A
1494475522.99,62792,11.81,72810.5,-6.35,-41.35,-41.99,0,*5E
1494475524.21,62793,11.81,72810.5,-6.37,-41.29,-41.99,0,*50
1494475525.46,62794,11.81,72808.8,-6.37,-41.41,-42.05,0,*5F
1494475526.68,62795,11.81,72808.5,-6.37,-41.29,-41.87,0,*59
1494475527.94,62796,11.81,72806.3,-6.37,-41.23,-41.99,0,*5F
1494475529.17,62797,11.81,72802.8,-6.37,-41.41,-41.99,0,*5A
1494475530.42,62798,11.81,72804.8,-6.37,-41.49,-42.19,0,*56
1494475531.68,62799,11.81,72806.3,-6.37,-41.23,-41.99,0,*50
1494475532.92,62800,11.81,72810.5,-6.37,-41.49,-42.05,0,*55
1494475534.15,62801,11.81,72804.8,-6.39,-41.29,-41.93,0,*50
1494475535.4,62802,11.81,72810.8,-6.39,-41.35,-41.93,0,*5E
1494475536.6,62803,11.81,72810.5,-6.39,-41.29,-41.87,0,*57
1494475537.87,62804,11.81,72802.5,-6.37,-41.03,-41.67,0,*58
1494475539.09,62805,11.81,72806.3,-6.37,-41.17,-41.87,0,*52
1494475540.35,62806,11.81,72808.0,-6.39,-41.35,-41.93,0,*5A
1494475541.55,62807,11.88,72804.5,-6.39,-41.29,-41.87,0,*53
1494475542.78,62808,11.81,72798.5,-6.37,-41.29,-41.99,0,*5D
1494475544.02,62809,11.81,72802.8,-6.37,-41.29,-42.05,0,*5A
1494475545.26,62810,11.88,72806.3,-6.35,-41.23,-41.73,0,*58
1494475546.5,62811,11.81,72808.8,-6.37,-41.29,-42.05,0,*53
1494475547.73,62812,11.81,72808.8,-6.37,-41.41,-41.99,0,*58
1494475548.98,62813,11.81,72810.5,-6.37,-41.49,-42.05,0,*57
1494475550.23,62814,11.81,72808.8,-6.37,-41.61,-42.05,0,*5A
1494475551.46,62815,11.81,72814.0,-6.37,-41.61,-42.25,0,*59
1494475552.69,62816,11.81,72814.5,-6.39,-41.67,-42.25,0,*52
1494475553.92,62817,11.81,72812.8,-6.39,-41.55,-42.13,0,*57
1494475555.15,62818,11.81,72810.5,-6.39,-41.55,-42.25,0,*5D
1494475556.44,62819,11.81,72816.3,-6.41,-41.67,-42.31,0,*57
1494475557.67,62820,11.81,72816.0,-6.39,-41.55,-42.25,0,*56
1494475558.94,62821,11.81,72814.0,-6.39,-41.55,-42.31,0,*52
1494475560.14,62822,11.81,72814.0,-6.39,-41.49,-42.13,0,*5C
1494475561.4,62823,11.81,72810.8,-6.39,-41.35,-42.05,0,*51
1494475562.63,62824,11.88,72814.0,-6.39,-41.55,-42.13,0,*57
1494475563.83,62825,11.88,72808.8,-6.39,-41.49,-42.13,0,*5B
1494475565.08,62826,11.88,72804.8,-6.41,-41.49,-42.05,0,*50
1494475566.31,62827,11.88,72804.3,-6.39,-41.55,-42.13,0,*54
1494475567.56,62828,11.81,72812.5,-6.39,-41.55,-42.05,0,*5C
1494475568.81,62829,11.88,72810.5,-6.41,-41.29,-41.93,0,*55
1494475570.03,62830,11.88,72806.0,-6.39,-41.29,-41.93,0,*52
1494475571.26,62831,11.88,72802.0,-6.39,-41.35,-42.13,0,*55
1494475572.52,62832,11.81,72796.5,-6.41,-41.67,-42.25,0,*5B
1494475573.75,62833,11.88,72796.8,-6.41,-41.49,-42.13,0,*53
1494475574.97,62834,11.88,72798.8,-6.39,-41.49,-41.93,0,*50
1494475576.2,62835,11.88,72800.3,-6.39,-41.49,-42.05,0,*5D
1494475577.46,62836,11.88,72808.0,-6.41,-41.55,-42.25,0,*5E
1494475578.71,62837,11.88,72814.0,-6.39,-41.55,-42.05,0,*52
1494475579.94,62838,11.88,72816.0,-6.39,-41.49,-42.05,0,*50
1494475581.18,62839,11.81,72800.8,-6.39,-41.35,-41.87,0,*53
1494475582.44,62840,11.88,72806.3,-6.41,-41.35,-41.73,0,*59
1494475583.66,62841,11.88,72810.3,-6.39,-41.29,-41.93,0,*54
1494475584.89,62842,11.88,72814.5,-6.41,-41.11,-41.73,0,*5D
1494475586.11,62843,11.88,72814.3,-6.41,-40.65,-41.11,0,*5A
1494475587.35,62844,11.88,72802.3,-6.41,-40.35,-40.91,0,*51
1494475588.55,62845,11.81,72808.3,-6.39,-40.65,-41.03,0,*50
1494475589.78,62846,11.88,72814.5,-6.39,-40.65,-41.23,0,*51
1494475591.01,62847,11.88,72806.8,-6.37,-40.47,-41.03,0,*5C
1494475592.22,62848,11.88,72806.0,-6.35,-40.53,-41.11,0,*57
1494475593.42,62849,11.88,72806.3,-6.35,-40.73,-41.41,0,*51
1494475594.68,62850,11.88,72810.8,-6.37,-40.85,-41.41,0,*52
1494475595.93,62851,11.88,72812.8,-6.37,-40.97,-41.61,0,*52
1494475597.18,62852,11.88,72810.8,-6.37,-40.85,-41.61,0,*52
1494475598.38,62853,11.88,72812.8,-6.35,-41.11,-41.61,0,*5D
1494475599.64,62854,11.88,72808.3,-6.35,-40.97,-41.55,0,*52
1494475600.9,62855,11.88,72814.0,-6.35,-40.97,-41.55,0,*53
1494475602.15,62856,11.88,72808.8,-6.35,-40.79,-41.35,0,*56
1494475603.4,62857,11.88,72812.8,-6.35,-40.79,-41.35,0,*57
1494475604.64,62858,11.88,72814.3,-6.35,-41.11,-41.55,0,*51
1494475605.9,62859,11.88,72814.0,-6.35,-40.97,-41.55,0,*5F
1494475607.12,62860,11.88,72812.3,-6.35,-40.79,-41.41,0,*50
1494475608.4,62861,11.88,72812.8,-6.33,-40.79,-41.55,0,*52
1494475609.66,62862,11.88,72808.3,-6.33,-40.97,-41.41,0,*54
1494475610.86,62863,11.88,72814.5,-6.35,-41.11,-41.61,0,*5E
1494475612.12,62864,11.88,72822.5,-6.35,-41.23,-41.81,0,*56
1494475613.37,62865,11.88,72816.3,-6.35,-41.23,-41.93,0,*54
1494475614.57,62866,11.88,72820.5,-6.35,-41.11,-41.61,0,*5B
1494475615.78,62867,11.88,72818.8,-6.35,-40.73,-41.17,0,*5E
1494475617.02,62868,11.88,72814.0,-6.33,-40.91,-41.41,0,*58
1494475618.28,62869,11.88,72818.0,-6.33,-40.91,-41.35,0,*5A
1494475619.51,62870,11.88,72812.8,-6.33,-40.91,-41.41,0,*51
1494475620.74,62871,11.88,72814.3,-6.33,-40.73,-41.17,0,*5F
1494475621.97,62872,11.88,72816.0,-6.33,-40.73,-41.17,0,*5C
1494475623.18,62873,11.88,72814.3,-6.31,-40.35,-40.91,0,*52
1494475624.38,62874,11.88,72812.0,-6.31,-40.65,-41.11,0,*59
1494475625.63,62875,11.88,72808.0,-6.33,-40.73,-41.35,0,*5B
1494475626.87,62876,11.88,72808.5,-6.33,-40.91,-41.41,0,*57
1494475628.13,62877,11.88,72810.5,-6.31,-40.85,-41.35,0,*52
1494475629.33,62878,11.88,72810.0,-6.31,-40.91,-41.49,0,*53
1494475630.59,62879,11.88,72812.8,-6.33,-41.23,-41.73,0,*51
1494475631.82,62880,11.88,72812.3,-6.33,-41.41,-41.99,0,*57
1494475633.08,62881,11.88,72812.5,-6.33,-41.55,-41.99,0,*53
1494475634.36,62882,11.88,72812.3,-6.33,-41.55,-42.19,0,*5B
1494475635.62,62883,11.88,72812.8,-6.33,-41.61,-42.19,0,*5D
1494475636.9,62884,11.88,72810.3,-6.33,-41.55,-42.19,0,*5D
1494475638.13,62885,11.88,72812.8,-6.33,-41.73,-42.13,0,*52
1494475639.35,62886,11.88,72814.0,-6.33,-41.73,-42.13,0,*51
1494475640.58,62887,11.88,72814.3,-6.35,-41.55,-42.13,0,*52
1494475641.81,62888,11.88,72812.5,-6.37,-41.61,-42.13,0,*58
1494475643.04,62889,11.88,72814.0,-6.35,-40.97,-41.61,0,*55
1494475644.26,62890,11.88,72808.5,-6.35,-40.79,-41.41,0,*5F
1494475645.49,62891,11.88,72804.0,-6.35,-40.79,-41.41,0,*5E
1494475646.72,62892,11.88,72800.3,-6.35,-40.79,-41.41,0,*5D
1494475647.96,62893,11.88,72800.3,-6.33,-40.91,-41.41,0,*5C
1494475649.24,62894,11.88,72798.0,-6.33,-40.79,-41.23,0,*59
1494475650.49,62895,11.88,72804.0,-6.33,-40.59,-41.17,0,*5D
1494475651.69,62896,11.88,72804.3,-6.31,-40.73,-41.29,0,*59
1494475652.94,62897,11.88,72800.8,-6.33,-40.79,-41.41,0,*5E
1494475654.18,62898,11.88,72810.8,-6.31,-40.91,-41.55,0,*50
1494475655.46,62899,11.88,72800.5,-6.33,-40.97,-41.55,0,*55
1494475656.74,62900,11.94,72810.3,-6.33,-40.97,-41.55,0,*54
1494475657.98,62901,11.88,72806.0,-6.31,-41.03,-41.55,0,*5B
1494475659.21,62902,11.94,72808.0,-6.31,-40.91,-41.55,0,*52
1494475660.45,62903,11.88,72806.8,-6.31,-41.03,-41.55,0,*59
1494475661.7,62904,11.88,72808.5,-6.31,-41.23,-41.81,0,*55
1494475662.94,62905,11.94,72812.3,-6.31,-41.17,-41.67,0,*5B
1494475664.19,62906,11.88,72808.3,-6.31,-41.35,-41.93,0,*53
1494475665.45,62907,11.94,72814.5,-6.33,-41.35,-41.99,0,*5A
1494475666.7,62908,11.88,72816.0,-6.31,-41.35,-42.05,0,*51
1494475667.92,62909,11.94,72814.3,-6.31,-41.49,-42.05,0,*5B
1494475669.21,62910,11.94,72816.5,-6.33,-41.55,-42.19,0,*51
1494475670.44,62911,11.94,72818.5,-6.33,-41.61,-42.13,0,*5D
1494475671.72,62912,11.94,72818.0,-6.33,-41.55,-42.19,0,*53
1494475672.98,62913,11.94,72816.8,-6.33,-41.61,-42.19,0,*55
1494475674.24,62914,11.94,72820.5,-6.33,-41.61,-42.19,0,*52
1494475675.49,62915,11.88,72814.5,-6.33,-41.61,-42.19,0,*53
1494475676.78,62916,11.94,72820.3,-6.33,-41.81,-42.31,0,*54
1494475678.07,62917,11.94,72820.0,-6.33,-41.81,-42.31,0,*55
1494475679.33,62918,11.94,72820.3,-6.35,-41.67,-42.31,0,*54
1494475680.59,62919,11.94,72820.8,-6.33,-41.61,-42.31,0,*55
1494475681.85,62920,11.94,72818.0,-6.33,-41.61,-42.19,0,*55
1494475683.08,62921,11.88,72816.5,-6.37,-41.61,-42.25,0,*5F
1494475684.32,62922,11.94,72822.8,-6.35,-41.61,-42.19,0,*51
1494475685.55,62923,11.94,72818.3,-6.35,-41.61,-42.19,0,*50
1494475686.79,62924,11.94,72820.8,-6.35,-41.61,-42.19,0,*57
1494475688.0,62925,11.94,72818.5,-6.35,-41.61,-42.25,0,*59
1494475689.25,62926,11.94,72816.5,-6.37,-41.61,-42.05,0,*5A
1494475690.48,62927,11.94,72826.5,-6.37,-41.49,-41.87,0,*58
1494475691.73,62928,11.94,72814.0,-6.37,-41.49,-42.05,0,*5E
1494475692.97,62929,11.94,72818.5,-6.37,-41.49,-42.05,0,*5F
1494475694.21,62930,11.94,72818.8,-6.35,-41.23,-41.61,0,*58
1494475695.47,62931,11.94,72814.8,-6.37,-40.41,-41.03,0,*5A